Location: Newark
(15.4608°S, 41.1635°W)
Time: 22:04:29
(UTC+00:00)

Transit 4A - Pass Details

Date: 08 August 2021
Orbit: 871 x 974 km, 66.8° (Epoch: 17 September)

Event Time Altitude Azimuth Distance (km) Brightness Sun altitude
Rises 21:36:10 0° 177° (S) 3,634 10.8 -14.9°
Reaches altitude 10° 21:39:38 10° 159° (SSE) 2,665 10.0 -15.7°
Enters shadow 21:41:40 16° 141° (SE) 2,270 9.5 -16.2°
